Flag for Poland Weather past 2 weeks in Zielona Góra, Poland

Now
54 °F

Passing clouds.


Feels Like: 54 °F
Forecast: 58 / 72 °F
Wind: 2 mph from South

Location: Zielona Gora

Current Time: Aug 29, 2014 at 5:49:15 AM

Latest Report: Aug 29, 2014 at 5:00 AM


Visibility: 31 mi

Pressure: 30.04 "Hg

Humidity: 71%

Dew point: 45 °F

Location of Zielona GóraLocation

Historic Weather in Zielona Góra — Graph

°F

Zielona Góra temperature yesterday

Maximum temperature yesterday: 70 °F (at 5:00 PM)
Minimum temperature yesterday: 52 °F (at 6:00 AM)
Average temperature yesterday: 61 °F

Past Weeks' High & Low Weather Summary

 TemperatureHumidityPressure
High71 °F (Aug 14, 5:00 PM)98% (Aug 27, 3:00 AM)30.08 "Hg (Aug 27, 3:00 AM)
Low45 °F (Aug 25, 6:00 AM)38% (Aug 28, 5:00 PM)29.67 "Hg (Aug 14, 4:00 AM)
Average58 °F71%29.91 "Hg
* Reported Aug 14 4:00 AM — Aug 29 4:00 AM, Zielona Góra, Weather by CustomWeather, © 2014

Note: Actual official high and low records may vary slightly from our data, if they occured in-between our weather recording intervals... More about our weather records

Advertising

Zielona Góra weather history for previous 24 hours

 ConditionsComfort  
Time TempWeatherWind HumidityBarometerVisibility
4:00 AM
Aug 29
55 °FPassing clouds.2 mph68%30.04 "Hg31 mi
3:00 AM55 °FClear.2 mph63%30.05 "Hg31 mi
2:00 AM58 °FClear.1 mph57%30.05 "Hg31 mi
1:00 AM59 °FClear.1 mph55%30.06 "Hg31 mi
12:00 AM59 °FClear.2 mph55%30.06 "Hg31 mi
11:00 PM
Aug 28
61 °FClear.1 mph52%30.06 "Hg31 mi
10:00 PM61 °FClear.1 mph49%30.06 "Hg31 mi
9:00 PM62 °FClear.1 mph51%30.06 "Hg31 mi
8:00 PM63 °FPassing clouds.1 mph52%30.04 "Hg31 mi
7:00 PM69 °FPassing clouds.1 mph42%30.04 "Hg31 mi
6:00 PM69 °FPassing clouds.2 mph38%30.04 "Hg31 mi
5:00 PM70 °FPassing clouds.2 mph38%30.04 "Hg31 mi
4:00 PM68 °FPassing clouds.2 mph43%30.05 "Hg31 mi
3:00 PM69 °FPassing clouds.5 mph41%30.06 "Hg31 mi
2:00 PM68 °FPassing clouds.3 mph42%30.06 "Hg31 mi
1:00 PM67 °FScattered clouds.3 mph40%30.06 "Hg31 mi
12:00 PM66 °FPassing clouds.3 mph49%30.08 "Hg31 mi
11:00 AM65 °FPassing clouds.2 mph56%30.08 "Hg31 mi
10:00 AM62 °FPassing clouds.2 mph64%30.08 "Hg28 mi
9:00 AM59 °FSunny.2 mph58%30.08 "Hg22 mi
8:00 AM57 °FSunny.2 mph66%30.07 "Hg22 mi
7:00 AM53 °FSunny.2 mph74%30.06 "Hg31 mi
6:00 AM52 °FPassing clouds.2 mph77%30.06 "Hg31 mi
5:00 AM53 °FClear.3 mph77%30.05 "Hg31 mi
Weather by CustomWeather, © 2014

See weather overviewHow to use our weather pages